HULIANGWANG DIGUI-06 (62328 NORAD) Tracking and Keplerian Element Data

This shows tracking and keplerian element data for the satellite.

Feedback or suggestion? Click here.




ElementValue
Catalog62328
NameHULIANGWANG DIGUI-06
Epoch Orbit661
Epoch Day34.83919062
Epoch Year2025
RAAN151.7537
Inclination86.503
Eccentricity0.0011433
Argument of Perigee154.0624
Mean Anonmoly206.1093
Mean Motion13.37561805
Decay Rate1.06E-06
L11 62328U 24240F 25034.83919062 .00000106 00000+0 17357-3 0 9997
L22 62328 86.5030 151.7537 0011433 154.0624 206.1093 13.37561805 6611



Live tracking and technical data element details for HULIANGWANG DIGUI-06 (NORAD 62328). HULIANGWANG DIGUI-06 can be tracked NOW for your location showing map with azimuth and elevation plus other details from your city location.







IsCatalogInMostPopularTable: catalog: 62328, numindb: 8
Update: records affected: 1



GetName: 62328 HULIANGWANG DIGUI-06

Hit Count: updated at: Mon, 19 May 2025 01:50:01 GMT